Location: Newark
(52.7142°N, 10.5097°E)
Time: 21:11:47
(UTC+00:00)

ISS - Visible Passes

Search period start: 18 January 2020 00:00
Search period end: 28 January 2020 00:00
Orbit: 415 x 421 km, 51.6° (Epoch: 19 January)

Date Brightness Start Highest point End Pass type
(mag) Time Alt. Az. Time Alt. Az. Time Alt. Az.
21 Jan -1.2 18:13:20 10° SSW 18:14:00 13° S 18:14:00 13° S visible
22 Jan -1.6 17:26:10 10° S 17:28:02 14° SE 17:28:10 14° SE visible
22 Jan -0.5 19:00:59 10° SW 19:01:07 11° SW 19:01:07 11° SW visible
23 Jan -2.1 18:13:10 10° SW 18:15:12 27° SSW 18:15:12 27° SSW visible
24 Jan -2.4 17:25:28 10° SSW 17:28:21 26° SSE 17:29:14 23° ESE visible
24 Jan -0.8 19:01:27 10° WSW 19:02:10 15° WSW 19:02:10 15° WSW visible
25 Jan -1.9 16:37:58 10° SSW 16:40:27 19° SE 16:42:57 10° E visible
25 Jan -3.0 18:13:28 10° WSW 18:16:08 46° SSW 18:16:08 46° SSW visible
26 Jan -3.1 17:25:31 10° SW 17:28:46 45° SSE 17:30:04 28° ESE visible
26 Jan -0.9 19:02:01 10° W 19:03:00 18° W 19:03:00 18° W visible
27 Jan -2.6 16:37:40 10° SW 16:40:46 34° SSE 16:43:52 10° E visible
27 Jan -3.4 18:13:57 10° W 18:16:53 62° SW 18:16:53 62° SW visible
